OBJECT F, 66671

Orbit data source: Space-Track

You're viewing an Uncataloged Satellite

Recently launched and/or uncataloged satellites may have evolving metadata. Metadata may include but not limited to: Owner, Maufacturer, Bus, Motor, and Mission.

OBJECT F, 66671 is a satellite in SSO that was launched on Fri, 28 Nov 2025 UTC via an FALCON 9 launch vehicle from the Air Force Western Test Range (AFWTR). Unknown objects in Earth's orbit typically refer to objects detected orbiting the Earth but have not yet been identified or cataloged. These objects could be anything from previously untracked satellites, spent rocket stages, debris from satellite collisions, or even natural meteoroids temporarily captured by Earth's gravity.

Loading next visibility...
Identifier
66671, 2025-276F
Orbit
SSO
Country
Flag of TBDTBD
Related business
None
Manufacturer
Unknown
Mission
Operational Commercial Communications
Bus & Motor
Unknown
Mass
Unknown
Launch date (UTC)
2025-11-28 (4 months ago)
Launch vehicle
FALCON 9
Launch site
Air Force Western Test Range (AFWTR)
Object type
Unknown
Shape & HBR
Box, 0.2 m
Radar Cross Section
0.100 m²

Expand to show TLE details & history
Last TLE update: 8 hours ago

TLE from 8 hours ago
0 OBJECT F
1 66671U 25276F   26095.48080678  .00015489  00000-0  71852-3 0  9994
2 66671  97.4241 170.3265 0004748 244.8344 115.2399 15.20126611 19387
Epoch: 2026-04-05T11:32Z
TLE epoch observation values (Epoch: 2026-04-05T11:32:21.705Z)
Latitude
-0.00004°
Longitude
163.45045°
Altitude
509.944 km
Speed
7.608 km/s
True Right ascension
11h 21m 18s
True Declination
0° 00' 00"
Sunlit
Object was in full shadow at epoch
Visualization orbit readout
Latitude
Unknown
Longitude
Unknown
Altitude
Unknown
Speed
Unknown
Apparent Right ascension
Unknown
Apparent Declination
Unknown
Sunlit
N/A
Visualization observer readout
Local Sidereal Time
01:45:51
Azimuth
Unknown
Elevation
Unknown
Doppler factor
Unknown
Orbital elements
Apogee altitude
505.692 km
Perigee altitude
499.158 km
Semi-major axis
6,880.562 km
Eccentricity
0.00047
Inclination
97.4241°
RAAN
170.3265°
Arg. of periapsis
244.8344°
True anomaly
115.2891°
Mean anomaly
115.2399°
Eccentric anomaly
115.2645°
Mean motion
3.80283 °/min
Orbital period
94.67 mins
BSTAR
0.00071852
Loading maneuver chart data...
Computing Atmospheric mass density...
Loading historical data...
Loading historical data...
Loading historical data...
Loading historical data...
Loading historical data...
Loading historical data...
Loading historical data...

Documentation

Showing up to 5 results
|